Location: Asheville, NC
(35.6000°N, 82.5500°W)
Time: 00:22:08
(UTC-04:00)

Vanguard 3 - Pass Details

Date: 11 March 2018
Orbit: 508 x 3264 km, 33.3° (Epoch: 18 June)

Event Time Altitude Azimuth Distance (km) Brightness Sun altitude
Rises 10:00:21 0° 236° (SW) 7,212 11.7 25.4°
Reaches altitude 10° 10:05:20 10° 233° (SW) 6,188 11.4 26.3°
Maximum altitude 10:24:18 62° 159° (SSE) 2,935 10.9 29.8°
Drops below altitude 10° 10:36:56 10° 83° (E) 4,318 11.7 32.0°
Sets 10:39:44 0° 80° (E) 5,005 11.8 32.4°
